TimeCST,TemperatureF,Dew PointF,Humidity,Sea Level PressureIn,VisibilityMPH,Wind Direction,Wind SpeedMPH,Gust SpeedMPH,PrecipitationIn,Events,Conditions,WindDirDegrees,DateUTC
12:15 AM,36.0,30.7,81,30.29,10.0,South,5.8,-,N/A,,Clear,180,2012-11-17 06:15:00
12:35 AM,35.2,30.9,84,30.29,10.0,South,4.6,-,N/A,,Clear,170,2012-11-17 06:35:00
12:55 AM,36.0,31.1,82,30.28,10.0,South,5.8,-,N/A,,Clear,180,2012-11-17 06:55:00
1:15 AM,35.8,31.3,84,30.28,10.0,South,5.8,-,N/A,,Clear,180,2012-11-17 07:15:00
1:35 AM,36.5,32.0,84,30.28,10.0,South,8.1,-,N/A,,Clear,180,2012-11-17 07:35:00
1:55 AM,36.5,32.0,84,30.28,10.0,South,5.8,-,N/A,,Clear,170,2012-11-17 07:55:00
2:15 AM,36.9,32.0,83,30.28,10.0,South,6.9,-,N/A,,Clear,170,2012-11-17 08:15:00
2:35 AM,37.6,32.4,81,30.27,10.0,South,9.2,-,N/A,,Clear,170,2012-11-17 08:35:00
2:55 AM,38.3,32.5,80,30.27,10.0,South,9.2,-,N/A,,Clear,180,2012-11-17 08:55:00
3:15 AM,37.4,32.2,81,30.27,10.0,South,8.1,-,N/A,,Clear,170,2012-11-17 09:15:00
3:35 AM,36.9,32.2,83,30.26,10.0,South,8.1,-,N/A,,Clear,180,2012-11-17 09:35:00
3:55 AM,36.1,32.0,85,30.26,10.0,South,6.9,-,N/A,,Clear,170,2012-11-17 09:55:00
4:15 AM,36.3,32.0,84,30.26,10.0,South,8.1,-,N/A,,Clear,170,2012-11-17 10:15:00
4:35 AM,36.7,32.4,84,30.26,10.0,South,10.4,-,N/A,,Clear,180,2012-11-17 10:35:00
4:55 AM,36.5,32.2,84,30.26,10.0,South,8.1,-,N/A,,Clear,180,2012-11-17 10:55:00
5:15 AM,36.7,32.4,84,30.26,10.0,South,6.9,-,N/A,,Clear,180,2012-11-17 11:15:00
5:35 AM,36.1,32.2,86,30.26,10.0,South,6.9,-,N/A,,Clear,170,2012-11-17 11:35:00
5:55 AM,35.6,32.4,88,30.25,10.0,South,8.1,-,N/A,,Clear,170,2012-11-17 11:55:00
6:15 AM,36.5,32.4,85,30.25,10.0,South,5.8,-,N/A,,Clear,180,2012-11-17 12:15:00
6:35 AM,37.0,32.9,85,30.25,10.0,South,8.1,-,N/A,,Clear,170,2012-11-17 12:35:00
6:55 AM,37.6,33.1,84,30.25,10.0,South,11.5,-,N/A,,Clear,180,2012-11-17 12:55:00
7:15 AM,37.8,33.1,83,30.25,10.0,South,11.5,-,N/A,,Clear,180,2012-11-17 13:15:00
7:35 AM,37.4,32.9,84,30.25,10.0,SSE,9.2,-,N/A,,Clear,160,2012-11-17 13:35:00
7:55 AM,37.4,33.4,86,30.25,10.0,South,8.1,-,N/A,,Clear,170,2012-11-17 13:55:00
8:15 AM,39.0,34.5,84,30.25,10.0,SSE,10.4,-,N/A,,Clear,160,2012-11-17 14:15:00
8:35 AM,41.0,35.4,81,30.25,10.0,South,11.5,-,N/A,,Clear,170,2012-11-17 14:35:00
8:55 AM,42.8,35.6,76,30.25,10.0,South,13.8,-,N/A,,Clear,180,2012-11-17 14:55:00
9:15 AM,44.6,35.8,71,30.25,10.0,South,12.7,-,N/A,,Clear,180,2012-11-17 15:15:00
9:35 AM,46.8,35.8,66,30.25,10.0,South,15.0,-,N/A,,Clear,180,2012-11-17 15:35:00
9:55 AM,49.8,36.1,59,30.25,10.0,South,15.0,21.9,N/A,,Clear,190,2012-11-17 15:55:00
10:15 AM,51.6,34.9,53,30.25,10.0,South,17.3,23.0,N/A,,Clear,190,2012-11-17 16:15:00
10:35 AM,52.3,34.2,50,30.24,10.0,South,18.4,25.3,N/A,,Clear,190,2012-11-17 16:35:00
11:55 AM,55.4,33.6,44,30.21,10.0,South,18.4,31.1,N/A,,Clear,190,2012-11-17 17:55:00
12:15 PM,56.5,33.3,42,30.19,10.0,South,17.3,23.0,N/A,,Clear,180,2012-11-17 18:15:00
12:35 PM,57.2,32.0,38,30.18,10.0,South,23.0,29.9,N/A,,Clear,190,2012-11-17 18:35:00
12:55 PM,57.9,31.8,37,30.18,10.0,South,19.6,28.8,N/A,,Clear,180,2012-11-17 18:55:00
1:15 PM,57.4,31.5,37,30.17,10.0,South,16.1,26.5,N/A,,Scattered Clouds,180,2012-11-17 19:15:00
1:35 PM,57.9,31.1,36,30.16,10.0,South,21.9,27.6,N/A,,Scattered Clouds,180,2012-11-17 19:35:00
1:55 PM,58.6,31.8,36,30.15,10.0,South,20.7,28.8,N/A,,Mostly Cloudy,180,2012-11-17 19:55:00
2:15 PM,58.5,32.0,37,30.15,10.0,South,18.4,27.6,N/A,,Scattered Clouds,170,2012-11-17 20:15:00
2:35 PM,57.6,32.4,39,30.15,10.0,South,13.8,24.2,N/A,,Mostly Cloudy,180,2012-11-17 20:35:00
3:15 PM,57.6,32.0,38,30.14,10.0,South,13.8,27.6,N/A,,Mostly Cloudy,180,2012-11-17 21:15:00
3:35 PM,57.2,33.1,40,30.14,10.0,South,13.8,20.7,N/A,,Clear,170,2012-11-17 21:35:00
3:55 PM,56.5,33.8,42,30.14,10.0,SSE,16.1,23.0,N/A,,Clear,160,2012-11-17 21:55:00
4:15 PM,55.8,33.8,44,30.14,10.0,South,13.8,20.7,N/A,,Clear,170,2012-11-17 22:15:00
4:35 PM,55.6,33.4,43,30.14,10.0,South,15.0,20.7,N/A,,Mostly Cloudy,170,2012-11-17 22:35:00
4:55 PM,54.9,33.8,45,30.13,10.0,SSE,19.6,23.0,N/A,,Mostly Cloudy,160,2012-11-17 22:55:00
5:15 PM,54.1,33.6,46,30.13,10.0,South,17.3,23.0,N/A,,Clear,170,2012-11-17 23:15:00
5:35 PM,53.6,33.1,46,30.13,10.0,South,18.4,25.3,N/A,,Clear,170,2012-11-17 23:35:00
5:55 PM,53.6,32.0,44,30.15,10.0,South,13.8,18.4,N/A,,Scattered Clouds,180,2012-11-17 23:55:00
6:15 PM,52.3,32.5,47,30.15,10.0,South,11.5,18.4,N/A,,Overcast,170,2012-11-18 00:15:00
6:35 PM,51.4,32.7,49,30.15,10.0,South,12.7,18.4,N/A,,Mostly Cloudy,170,2012-11-18 00:35:00
6:55 PM,50.4,32.5,50,30.15,10.0,South,11.5,17.3,N/A,,Scattered Clouds,170,2012-11-18 00:55:00
7:15 PM,49.6,32.5,52,30.15,10.0,SSE,11.5,17.3,N/A,,Scattered Clouds,160,2012-11-18 01:15:00
7:35 PM,49.1,32.5,53,30.16,10.0,SSE,13.8,-,N/A,,Clear,160,2012-11-18 01:35:00
7:55 PM,48.4,32.7,55,30.16,10.0,South,11.5,17.3,N/A,,Clear,170,2012-11-18 01:55:00
8:15 PM,47.8,32.7,56,30.16,10.0,South,12.7,18.4,N/A,,Clear,170,2012-11-18 02:15:00
8:35 PM,47.8,32.4,55,30.16,10.0,SSE,13.8,-,N/A,,Clear,160,2012-11-18 02:35:00
8:55 PM,47.7,32.2,55,30.16,10.0,SSE,12.7,19.6,N/A,,Clear,160,2012-11-18 02:55:00
9:15 PM,47.3,32.2,56,30.16,10.0,SSE,13.8,17.3,N/A,,Clear,160,2012-11-18 03:15:00
9:35 PM,46.4,32.0,57,30.16,10.0,SSE,13.8,17.3,N/A,,Clear,160,2012-11-18 03:35:00
9:55 PM,45.1,32.0,60,30.15,10.0,SSE,13.8,-,N/A,,Clear,160,2012-11-18 03:55:00
10:15 PM,44.8,31.6,60,30.15,10.0,SSE,12.7,18.4,N/A,,Clear,160,2012-11-18 04:15:00
10:35 PM,44.1,31.6,62,30.14,10.0,South,12.7,17.3,N/A,,Clear,170,2012-11-18 04:35:00
10:55 PM,43.7,31.8,63,30.14,10.0,South,11.5,17.3,N/A,,Clear,170,2012-11-18 04:55:00
11:15 PM,44.1,32.0,63,30.14,10.0,South,11.5,-,N/A,,Clear,170,2012-11-18 05:15:00
11:35 PM,44.6,32.0,61,30.14,10.0,South,11.5,-,N/A,,Clear,170,2012-11-18 05:35:00
11:55 PM,44.6,32.0,61,30.14,10.0,South,11.5,-,N/A,,Clear,180,2012-11-18 05:55:00